This is the latest recevied weather packets stored in our database for station/object DN9ID-13. If no packets are shown the sender has not sent any weather packets the latest 10 day(s).
| Time | Temp. | Humidity | Pressure | Rain* | Wind** | Luminosity | Snow |
|---|---|---|---|---|---|---|---|
| 1787744702 | 18.33° C | 78% | 1019.6 hPa | 0 mm | - | - | - |
| 1787743804 | 17.78° C | 78% | 1019.5 hPa | 0 mm | - | - | - |
| 1787742902 | 17.78° C | 78% | 1019.5 hPa | 0 mm | - | - | - |
| 1787742002 | 17.22° C | 79% | 1019.6 hPa | 0 mm | - | - | - |
| 1787741102 | 17.22° C | 79% | 1019.5 hPa | 0 mm | - | - | - |
| 1787740201 | 16.67° C | 80% | 1019.5 hPa | 0 mm | - | - | - |
| 1787739301 | 16.67° C | 80% | 1019.6 hPa | 0 mm | - | - | - |
| 1787738402 | 16.67° C | 80% | 1019.5 hPa | 0 mm | - | - | - |
| 1787737501 | 16.67° C | 80% | 1019.4 hPa | 0 mm | - | - | - |
| 1787736602 | 16.67° C | 80% | 1019.4 hPa | 0 mm | - | - | - |
| 1787735702 | 17.22° C | 79% | 1019.4 hPa | 0 mm | - | - | - |
| 1787734802 | 17.22° C | 79% | 1019.4 hPa | 0 mm | - | - | - |
| 1787733902 | 17.22° C | 79% | 1019.1 hPa | 0 mm | - | - | - |
| 1787733001 | 16.67° C | 80% | 1019.3 hPa | 0 mm | - | - | - |
| 1787732102 | 16.67° C | 80% | 1019.1 hPa | 0 mm | - | - | - |
| 1787731202 | 16.67° C | 80% | 1019 hPa | 0 mm | - | - | - |
| 1787730302 | 16.11° C | 81% | 1018.8 hPa | 0 mm | - | - | - |
| 1787729402 | 16.11° C | 81% | 1018.9 hPa | 0 mm | - | - | - |
| 1787728507 | 16.11° C | 82% | 1018.7 hPa | 0 mm | - | - | - |
| 1787727602 | 16.11° C | 83% | 1018.8 hPa | 0 mm | - | - | - |
| 1787726701 | 16.11° C | 82% | 1018.9 hPa | 0 mm | - | - | - |
| 1787725802 | 15.56° C | 82% | 1018.7 hPa | 0 mm | - | - | - |
| 1787724901 | 15.56° C | 83% | 1018.5 hPa | 0 mm | - | - | - |
| 1787724002 | 15.56° C | 87% | 1018.6 hPa | 0 mm | - | - | - |
| 1787723102 | 15° C | 86% | 1018.5 hPa | 0 mm | - | - | - |
* Rain since midnight (hover to see other rain measurements)
** Current wind speed in m/s (hover to see current wind gust speed)